Location: Ku?niki
(51.4449°N, 17.8974°E)
Time: 11:23:51
(UTC+00:00)

Meteor 1-12 Rocket - Pass Details

Date: 18 September 2020
Orbit: 854 x 927 km, 81.2° (Epoch: 25 October)

Event Time Altitude Azimuth Distance (km) Brightness Sun altitude
Rises 18:07:56 0° 178° (S) 3,537 7.2 -12.0°
Reaches altitude 10° 18:10:26 10° 175° (S) 2,590 6.5 -12.3°
Maximum altitude 18:16:14 61° 97° (E) 1,019 4.3 -13.2°
Drops below altitude 10° 18:21:57 10° 18° (NNE) 2,560 6.7 -14.0°
Sets 18:24:25 0° 16° (NNE) 3,492 7.5 -14.4°
